This is the latest recevied weather packets stored in our database for station/object PY1AU-13. If no packets are shown the sender has not sent any weather packets the latest 1 day(s).
| Time | Temp. | Humidity | Pressure | Rain* | Wind** | Luminosity | Snow |
|---|---|---|---|---|---|---|---|
| 1778098728 | 27.78° C | 98% | 1018.2 hPa | - | - | - | - |
| 1778098428 | 27.78° C | 98% | 1018.2 hPa | - | - | - | - |
| 1778097228 | 27.78° C | 95% | 1018.1 hPa | - | - | - | - |
| 1778096928 | 27.78° C | 95% | 1018 hPa | - | - | - | - |
| 1778096628 | 27.78° C | 95% | 1018 hPa | - | - | - | - |
| 1778096328 | 27.78° C | 95% | 1018 hPa | - | - | - | - |
| 1778095728 | 27.78° C | 93% | 1018.1 hPa | - | - | - | - |
| 1778094228 | 28.33° C | 93% | 1018 hPa | - | - | - | - |
| 1778093928 | 28.33° C | 93% | 1018.1 hPa | - | - | - | - |
| 1778092128 | 27.78° C | 91% | 1018 hPa | - | - | - | - |
| 1778091828 | 27.78° C | 91% | 1018 hPa | - | - | - | - |
| 1778091228 | 27.78° C | 91% | 1018 hPa | - | - | - | - |
| 1778089728 | 27.78° C | 90% | 1018.2 hPa | - | - | - | - |
| 1778088528 | 27.22° C | 90% | 1018.4 hPa | - | - | - | - |
| 1778088228 | 27.22° C | 91% | 1018.5 hPa | - | - | - | - |
| 1778087628 | 27.22° C | 92% | 1018.6 hPa | - | - | - | - |
| 1778087028 | 27.22° C | 91% | 1018.8 hPa | - | - | - | - |
| 1778086128 | 27.22° C | 93% | 1018.9 hPa | - | - | - | - |
| 1778085528 | 27.22° C | 94% | 1019 hPa | - | - | - | - |
| 1778077428 | 26.67° C | 94% | 1021 hPa | - | - | - | - |
| 1778069627 | 26.67° C | 92% | 1022.4 hPa | - | - | - | - |
| 1778069327 | 26.67° C | 92% | 1022.3 hPa | - | - | - | - |
| 1778069027 | 26.67° C | 92% | 1022.2 hPa | - | - | - | - |
| 1778068727 | 26.67° C | 91% | 1022.1 hPa | - | - | - | - |
| 1778067827 | 26.67° C | 88% | 1022 hPa | - | - | - | - |
* Rain since midnight (hover to see other rain measurements)
** Current wind speed in m/s (hover to see current wind gust speed)